Starlink 6202

operational
NORAD ID: 56896 Int'l Des: 2023-083 Owner: SPXS Country: US Constellation: starlink
LEOCIRCULAR

About Starlink 6202

Description loading...

Live Position

Loading 3D Globe...

Upcoming Passes

Altitude History

Altitude vs Time

uPlot chart will show altitude changes over time

Two-Line Element Set

1 56896U 23083W 25300.79810919 .00000140 00000-0 25408-4 0 9992
2 56896 43.0037 83.5569 0001191 272.0291 88.0415 15.02537746131791
Epoch: Oct 27, 2025 • Age: 27 hours

Current Status

Altitude 564.2 km
Velocity 7.58 km/s
Sub-Earth Point -23.67°S, 40.3°E
Launch Date Jun 12, 2023
Age 2.3 years
Type internet

Technical Details

Classification Payload
Mass 305.00 kg
Dry Mass 290.00 kg
Total Mass 305.00 kg
Length 0.20 m
Diameter 2.80 m
Span 9.00 m
Shape Box + pan
Manufacturer SPXS
Bus Type Starlink
Phase Status In Orbit
Owner/State SPXS/US

Large Constellations

Loading constellations...